Regional Weather Roundup
Issued by NWS

Home | Current Version | Previous Version | Text Only | Print | Product List | Glossary Off
Versions: 1 2 3 4 5 6 7 8 9 10 11 12 13 14 15 16 17 18 19 20 21 22 23 24 25 26 27 28

000
ASUS43 KDMX 301107
RWRIA

WEATHER ROUNDUP FOR IOWA
NATIONAL WEATHER SERVICE DES MOINES IA
600 AM CDT THU OCT 30 2014

NOTE: "FAIR" INDICATES FEW OR NO CLOUDS BELOW 12,000 FEET WITH NO
SIGNIFICANT WEATHER AND/OR OBSTRUCTIONS TO VISIBILITY.

* - THESE STATIONS ARE NOT NWS STATIONS...THUS NOT UNDER NWS
QUALITY CONTROL.  THEY ALSO DO NOT REPORT WEATHER SUCH
AS PRECIPITATION OR FOG.

IAZ001>003-012>014-020>022-031>034-043>046-301200-
   NORTHWEST IOWA

CITY           SKY/WX    TMP DP  RH WIND       PRES   REMARKS
CARROLL *      PTCLDY    41  36  81 S8        30.00F
CHEROKEE *     PTCLDY    39  34  81 S3        29.99S
DENISON *      MOCLDY    39  34  81 CALM      29.98R
LE MARS *      CLEAR     39  32  75 S5        30.00R
ORANGE CITY *  CLEAR     41  32  70 SW6       29.98S
SHELDON *      MOCLDY    41  34  75 S6        29.97S
SIOUX CITY     CLEAR     37  32  82 E3        30.00S
SPENCER        CLOUDY    42  34  73 SE5       29.99R
STORM LAKE *   CLEAR     37  34  87 SW6       30.00R WCI  33
$$

IAZ055>058-069>071-079>083-090>094-301200-
   SOUTHWEST IOWA

CITY           SKY/WX    TMP DP  RH WIND       PRES   REMARKS
ATLANTIC *     PTCLDY    41  34  75 NE6       29.99S
AUDUBON *      PTCLDY    39  34  81 CALM      30.01S
CLARINDA *     PTCLDY    45  37  76 S5        30.01R
COUNCIL BLFS * MOCLDY    43  36  75 S5        29.99R
CRESTON *      CLOUDY    43  36  75 SE6       30.00F
HARLAN  *      PTCLDY    41  36  81 CALM      30.03R
LAMONI         CLOUDY    45  34  65 S10       30.01F
RED OAK *      PTCLDY    43  36  75 S5        29.99R
SHENANDOAH *   CLEAR     43  37  81 CALM      30.00R
$$

IAZ047>049-059>061-072>074-084-301200-
   CENTRAL IOWA

CITY           SKY/WX    TMP DP  RH WIND       PRES   REMARKS
AMES           CLOUDY    40  36  86 CALM      30.05F
ANKENY *       CLOUDY    41  37  87 NE3       30.06R
CHARITON *     CLOUDY    41  36  81 SE8       30.03S
DES MOINES     CLOUDY    43  35  73 NE6       30.06R
GRINNELL*      MOCLDY    39  34  81 SE5       30.07R
KNOXVILLE *    CLOUDY    41  36  81 SE8       30.03S
MARSHALLTOWN   CLOUDY    38  35  89 SE10      30.05F WCI  31
PELLA *        MOCLDY    41  36  81 SE7       30.06F
PERRY *        LGT RAIN  41  37  87 SE12      30.02F
$$

IAZ004>006-015-016-023>025-035-036-301200-
   NORTH CENTRAL IOWA

CITY           SKY/WX    TMP DP  RH WIND       PRES   REMARKS
ALGONA *       CLOUDY    41  37  87 SE5       30.00S
CLARION *      CLOUDY    43  37  81 S10       30.01S
ESTHERVILLE    CLOUDY    41  34  76 E3        29.99R
FORT DODGE *   MOCLDY    43  34  70 CALM      30.00S
MASON CITY     MOCLDY    34  33  96 E3        30.04S
FOREST CITY *  CLOUDY    37  36  93 CALM      30.02S
IOWA FALLS *   CLOUDY    39  36  87 SE7       30.04F WCI  34
$$

IAZ007>011-017>019-026>030-037>042-050>054-066-301200-
   NORTHEAST IOWA

CITY           SKY/WX    TMP DP  RH WIND       PRES   REMARKS
CEDAR RAPIDS   PTCLDY    34  33  96 SE5       30.08F WCI  30
CHARLES CITY * PTCLDY    37  34  87 SE3       30.06R
CLINTON *      MOCLDY    32  28  86 SW3       30.15R
DECORAH *      MOCLDY    36  32  87 S5        30.06S WCI  32
DUBUQUE        PTCLDY    32  30  92 SW3       30.10S
MONTICELLO *   PTCLDY    32  32 100 CALM      30.10S
OELWEIN *      CLOUDY    36  34  93 SE8       30.07F WCI  29
WATERLOO       CLOUDY    38  34  85 S5        30.06F WCI  34
$$

IAZ064-065-067-068-078-301200-
   EAST CENTRAL IOWA

CITY           SKY/WX    TMP DP  RH WIND       PRES   REMARKS
DAVENPORT      CLOUDY    35  31  85 S3        30.12S
IOWA CITY      PTCLDY    34  32  92 CALM      30.12S
MT. PLEASANT * PTCLDY    36  34  93 SE6       30.10F WCI  31
MUSCATINE *    CLEAR     34  32  93 CALM      30.12F
QUAD CITIES    MOCLDY    33  30  88 CALM      30.13R
$$

IAZ062-063-075>077-085>089-095>099-301200-
   SOUTHEAST IOWA

CITY           SKY/WX    TMP DP  RH WIND       PRES   REMARKS
BURLINGTON     MOCLDY    37  34  89 SE5       30.11F WCI  33
FAIRFIELD *    MOCLDY    39  34  81 SE9       30.08F WCI  33
FORT MADISON * CLOUDY    45  37  76 SE6       30.11F
KEOKUK *       MIX PCPN  43  36  75 SE7       30.10F
OSKALOOSA *    MOCLDY    37  34  87 SE7       30.07F WCI  32
CENTERVILLE *  PTCLDY    41  37  87 SE9       30.06F
OTTUMWA        MOCLDY    39  34  82 SE6       30.06F WCI  35
WASHINGTON *   MOCLDY    37  37 100 SE7       30.10S WCI  32
$$

ABBREVIATIONS USED IN REMARKS
   TC - TEMPERATURES IN CELSIUS
  WCI - WIND CHILL INDEX
   HX - HEAT INDEX
  VSB - VISIBILITY
$$




USA.gov is the U.S. government's official web portal to all federal, state and local government web resources and services.